Location: Unspecified
(0.0000°N, 0.0000°E)
Time: 17:58:32
(UTC+00:00)

COSMOS 2496 - Pass Details

Date: 21 May 2026
Orbit: 1478 x 1511 km, 82.4° (Epoch: 10 June)

Event Time Altitude Azimuth Distance (km) Brightness Sun altitude
Rises 04:03:05 0° 1° (N) 4,582 ? -26.5°
Reaches altitude 10° 04:05:57 10° 3° (N) 3,605 ? -25.8°
Maximum altitude 04:14:35 74° 87° (E) 1,535 ? -23.8°
Drops below altitude 10° 04:23:16 10° 171° (S) 3,634 ? -21.8°
Sets 04:26:10 0° 172° (S) 4,620 ? -21.2°
